Location: Ethel Rock
(53.4667°N, 4.5667°W)
Time: 05:11:38
(UTC+00:00)

Cosmos 44 Rocket - Pass Details

Date: 24 October 2020
Orbit: 642 x 748 km, 65.1° (Epoch: 25 November)

Event Time Altitude Azimuth Distance (km) Brightness Sun altitude
Exits shadow 03:44:44 57° 47° (NE) 868 3.9 -29.7°
Drops below altitude 10° 03:49:41 10° 118° (ESE) 2,255 6.4 -29.0°
Sets 03:52:07 0° 123° (ESE) 3,182 7.2 -28.6°
